Location: River House Observatory
(37.8577°N, 76.3548°W)
Time: 17:26:29
(UTC-05:00)

Hubble Space Telescope - Pass Details

Date: 26 January 2018
Orbit: 537 x 541 km, 28.5° (Epoch: 21 February)

Event Time Altitude Azimuth Distance (km) Brightness Sun altitude
Rises 20:02:07 0° 250° (WSW) 2,670 5.3 -31.5°
Reaches altitude 10° 20:04:46 10° 234° (SW) 1,779 4.0 -32.1°
Enters shadow 20:05:30 13° 227° (SW) 1,574 3.6 -32.2°
